FW5919 Weather Reports


time (UTC)temp
F
wind
direction
speed
knots
gust
knots
rain 1hr
in
rain 24hr
in
rain mn
in
humidity
%
barometer
mb
20260510123020 72 0.0 0.9 0.00 0.23 0.01 96 1016.7
20260510122021 71 0.0 0.9 0.00 0.23 0.01 96 1016.6
20260510121020 71 0.0 0.0 0.00 0.23 0.01 96 1016.4
20260510120020 70 0.0 0.0 0.00 0.23 0.01 96 1016.4
20260510115020 70 0.0 0.0 0.00 0.23 0.01 96 1016.3
20260510114101 70 0.0 0.0 0.00 0.23 0.01 96 1016.1
20260510113020 70 0.0 0.0 0.00 0.23 0.01 96 1016.1
20260510112020 69 0.0 0.0 0.00 0.23 0.01 96 1016.1
20260510111020 69 0.0 0.9 0.00 0.23 0.01 96 1016.0
20260510110020 69 0.0 0.0 0.00 0.23 0.01 96 1015.7
20260510105041 69 0.0 0.0 0.00 0.23 0.01 96 1015.5
20260510104021 69 0.0 0.0 0.00 0.23 0.01 96 1015.5
20260510103020 69 0.0 0.0 0.00 0.23 0.01 96 1015.4
20260510102100 69 0.0 0.0 0.00 0.23 0.01 96 1015.3
20260510101019 69 0.0 0.0 0.00 0.23 0.01 96 1015.4
20260510100023 69 0.0 0.0 0.00 0.23 0.01 96 1015.3
20260510095021 69 0.0 0.9 0.00 0.23 0.01 96 1015.2
20260510094021 69 0.0 0.0 0.00 0.23 0.01 96 1014.9
20260510093020 69 0.0 0.0 0.00 0.23 0.01 96 1014.9
20260510092039 69 0.0 0.0 0.00 0.23 0.01 96 1014.8
20260510091021 70 0.0 0.0 0.00 0.23 0.01 95 1014.7
20260510090020 70 0.0 0.0 0.00 0.23 0.01 96 1014.6
20260510085020 70 0.0 0.9 0.00 0.23 0.01 96 1014.4
20260510084019 70 0.0 0.0 0.00 0.23 0.01 96 1014.3
20260510083020 70 0.0 0.9 0.01 0.23 0.01 96 1014.2
20260510082020 70 0.0 0.0 0.01 0.23 0.01 96 1014.3
20260510081019 70 0.0 0.9 0.01 0.23 0.01 96 1014.3
20260510080020 70 0.0 0.0 0.01 0.23 0.01 95 1014.3
20260510075021 70 0.0 0.0 0.01 0.23 0.01 95 1014.2
20260510074019 70 0.0 0.9 0.01 0.23 0.01 95 1014.2
20260510073039 70 0.0 0.0 0.00 0.22 0.00 95 1014.0
20260510072020 70 0.0 0.0 0.00 0.22 0.00 96 1013.9
20260510071019 70 0.0 0.9 0.00 0.22 0.00 96 1013.6
20260510070020 71 0.0 0.0 0.00 0.22 0.00 96 1013.8
20260510065040 71 0.0 0.0 0.00 0.22 0.00 96 1013.9
20260510064020 71 0.0 0.0 0.00 0.22 0.00 96 1014.2
20260510063020 70 0.0 0.0 0.00 0.22 0.00 96 1014.1
20260510062020 70 0.0 0.9 0.00 0.22 0.00 96 1014.2
20260510061040 70 0.0 0.9 0.00 0.22 0.00 95 1014.6
20260510060020 70 0.0 0.0 0.00 0.22 0.00 95 1014.7
20260510055020 70 0.0 0.0 0.00 0.22 0.00 95 1014.9
20260510054020 70 0.0 0.0 0.00 0.22 0.00 95 1015.0
20260510053021 71 0.0 0.0 0.00 0.22 0.00 95 1015.2
20260510052040 71 0.0 0.0 0.00 0.22 0.00 95 1015.3
20260510051020 71 0.0 0.9 0.00 0.22 0.00 95 1015.5
20260510050020 71 0.0 0.0 0.00 0.22 0.00 95 1015.6
20260510045209 71 0.0 0.0 0.00 0.22 0.00 95 1015.9
20260510044020 71 0.0 0.0 0.00 0.22 0.00 95 1015.8
20260510043019 71 0.0 0.0 0.00 0.22 0.00 95 1015.8
20260510042040 71 0.0 0.0 0.00 0.22 0.00 95 1015.8
20260510041020 71 0.0 0.0 0.00 0.22 0.00 95 1015.7
20260510040020 71 0.0 0.0 0.00 0.22 0.22 95 1015.6
20260510035028 71 0.0 0.0 0.00 0.28 0.22 95 1015.7
20260510034020 71 0.0 0.9 0.00 0.29 0.22 95 1015.8
20260510033020 71 0.0 0.0 0.00 0.29 0.22 95 1015.7
20260510032019 71 0.0 0.0 0.00 0.29 0.22 95 1015.8
20260510031040 71 0.0 0.9 0.00 0.29 0.22 95 1015.8
20260510030020 71 0.0 0.9 0.00 0.29 0.22 95 1015.8
20260510025020 71 0.0 0.0 0.00 0.29 0.22 95 1015.6
20260510024019 71 0.0 0.9 0.00 0.29 0.22 95 1015.5
20260510023021 71 0.0 2.6 0.00 0.29 0.22 95 1015.4
20260510022020 71 0.0 1.7 0.00 0.29 0.22 95 1015.2
20260510021020 71 0.0 1.7 0.00 0.29 0.22 95 1015.2
20260510020020 71 225 0.9 1.7 0.00 0.29 0.22 95 1015.1
20260510015020 71 0.0 0.9 0.00 0.29 0.22 94 1014.7
20260510014020 71 0.0 0.9 0.00 0.29 0.22 94 1014.7
20260510013059 71 0.0 0.0 0.00 0.29 0.22 94 1014.5
20260510012020 72 0.0 0.0 0.00 0.29 0.22 94 1014.6
20260510011020 72 0.0 0.9 0.00 0.29 0.22 94 1014.3
20260510010022 72 0.0 0.0 0.00 0.29 0.22 94 1014.2
20260510005019 72 0.0 0.0 0.01 0.29 0.22 94 1014.3
20260510004040 72 0.0 0.0 0.01 0.29 0.22 94 1014.2
20260510003019 72 0.0 0.0 0.01 0.29 0.22 94 1014.4
20260510002020 72 0.0 1.7 0.01 0.29 0.22 94 1014.6
20260510001020 72 293 0.9 2.6 0.01 0.29 0.22 93 1014.8
20260510000019 72 293 0.9 2.6 0.01 0.29 0.22 93 1014.6
20260509235040 72 293 0.9 2.6 0.00 0.28 0.21 93 1014.7
20260509234020 72 0.0 1.7 0.00 0.28 0.21 93 1014.5
20260509233020 73 0.0 1.7 0.00 0.28 0.21 93 1014.4
20260509232019 73 0.0 1.7 0.00 0.28 0.21 93 1014.5
20260509231020 73 315 0.9 1.7 0.00 0.28 0.21 93 1014.4
20260509230020 73 315 0.9 2.6 0.01 0.28 0.21 93 1014.1
20260509225021 73 0.0 1.7 0.02 0.28 0.21 93 1014.2
20260509224020 73 270 0.9 2.6 0.02 0.28 0.21 93 1014.3
20260509223019 74 315 0.9 1.7 0.02 0.28 0.21 93 1014.3
20260509222040 74 293 0.9 4.3 0.02 0.28 0.21 92 1014.4
20260509221019 74 338 0.9 3.5 0.02 0.33 0.21 92 1014.3
20260509220020 74 270 1.7 2.6 0.01 0.34 0.20 91 1014.2
20260509215022 74 338 0.9 2.6 0.00 0.48 0.19 91 1014.2
20260509214020 75 293 2.6 5.2 0.00 0.54 0.19 90 1013.9
20260509213020 75 270 0.9 5.2 0.00 0.54 0.19 91 1013.8
20260509212019 75 0 0.9 1.7 0.00 0.54 0.19 91 1013.7
20260509211039 76 0.0 1.7 0.00 0.54 0.19 91 1013.8
20260509210019 76 293 0.9 2.6 0.00 0.54 0.19 90 1013.7
20260509205019 76 293 1.7 4.3 0.01 0.54 0.19 90 1014.0
20260509204019 75 248 1.7 4.3 0.17 0.54 0.19 91 1013.8
20260509203020 75 315 0.9 2.6 0.17 0.54 0.19 92 1013.8
20260509202019 75 0.0 1.7 0.17 0.54 0.19 92 1013.8
20260509201019 75 0.0 0.9 0.17 0.54 0.19 91 1013.8
20260509200018 75 270 1.7 7.8 0.17 0.54 0.19 90 1013.9
20260509195020 77 338 3.5 8.7 0.17 0.53 0.18 87 1013.8
20260509194020 78 315 0.9 4.3 0.02 0.37 0.02 88 1013.9
20260509193020 78 0.0 0.9 0.02 0.37 0.02 90 1013.8
20260509192022 78 225 0.9 2.6 0.02 0.37 0.02 89 1014.0
20260509191059 77 0.0 0.9 0.02 0.37 0.02 90 1013.7
20260509190020 77 0.0 0.9 0.02 0.37 0.02 89 1013.7
20260509185020 78 203 0.9 0.9 0.01 0.36 0.01 86 1013.7
20260509184019 79 0.0 0.9 0.00 0.35 0.00 84 1014.0
20260509183019 80 0.0 0.9 0.00 0.35 0.00 81 1014.2
20260509182019 81 203 0.9 2.6 0.00 0.35 0.00 77 1014.2
20260509181019 81 248 0.9 1.7 0.00 0.35 0.00 77 1014.2
20260509180039 82 270 0.9 2.6 0.00 0.35 0.00 75 1014.3
20260509175019 82 203 0.9 2.6 0.00 0.35 0.00 76 1014.2
20260509174019 82 248 1.7 4.3 0.00 0.35 0.00 75 1014.3
20260509173019 81 180 1.7 3.5 0.00 0.35 0.00 76 1014.3
20260509172019 81 180 1.7 5.2 0.00 0.35 0.00 77 1014.1
20260509171019 80 225 0.9 2.6 0.00 0.35 0.00 79 1014.0
20260509170039 80 203 0.9 3.5 0.00 0.35 0.00 79 1014.5
20260509165019 80 180 1.7 3.5 0.00 0.35 0.00 78 1014.6
20260509164022 80 0.0 1.7 0.00 0.35 0.00 79 1014.8
20260509163019 79 203 0.9 1.7 0.00 0.35 0.00 80 1014.7
20260509162020 79 0.0 1.7 0.00 0.35 0.00 84 1014.6
20260509161020 79 0.0 1.7 0.00 0.35 0.00 84 1014.8
20260509160021 79 225 0.9 2.6 0.00 0.35 0.00 81 1015.2
20260509155019 79 0.0 2.6 0.00 0.35 0.00 82 1015.0
20260509154018 78 225 0.9 3.5 0.00 0.35 0.00 82 1015.0
20260509153018 78 180 0.9 2.6 0.00 0.35 0.00 82 1014.7
20260509152021 77 0.0 2.6 0.00 0.35 0.00 83 1014.7
20260509151021 77 0.0 1.7 0.00 0.35 0.00 85 1015.0
20260509150202 78 180 0.9 2.6 0.00 0.35 0.01 82 1015.3
20260509145021 77 203 1.7 4.3 0.00 0.35 0.00 84 1015.2
20260509144019 77 180 0.9 1.7 0.00 0.35 0.00 86 1014.8
20260509143021 77 180 0.9 2.6 0.00 0.35 0.00 86 1014.9
20260509142059 76 248 0.9 3.5 0.00 0.35 0.00 87 1014.7
20260509141021 76 225 0.9 1.7 0.00 0.35 0.00 88 1014.9
20260509140021 75 225 0.9 2.6 0.00 0.35 0.00 88 1015.2
20260509135118 75 158 0.9 3.5 0.00 0.35 0.00 91 1015.1
20260509134040 74 203 0.9 3.5 0.00 0.35 0.00 94 1015.0
20260509133042 73 203 0.9 4.3 0.00 0.35 0.00 94 1014.4
20260509132042 73 180 0.9 3.5 0.00 0.35 0.00 95 1014.5
20260509131021 72 0.0 1.7 0.00 0.35 0.00 95 1014.4
20260509130020 72 180 1.7 4.3 0.00 0.35 0.00 96 1014.4
20260509125041 71 180 0.9 3.5 0.00 0.35 0.00 96 1014.4
20260509124020 71 180 0.9 2.6 0.00 0.35 0.00 96 1014.2